Time,TemperatureF,DewpointF,PressureIn,WindDirection,WindDirectionDegrees,WindSpeedMPH,WindSpeedGustMPH,Humidity,HourlyPrecipIn,Conditions,Clouds,dailyrainin,SoftwareType,DateUTC
2013-08-06 00:07:00,75.3,75.0,29.90,NE,45,0.0,1.0,99,0.00,,,0.00,weatherlink.com 1.10,2013-08-06 05:07:00,
2013-08-06 00:22:00,75.1,75.0,29.90,NE,46,0.0,1.0,99,0.00,,,0.00,weatherlink.com 1.10,2013-08-06 05:22:00,
2013-08-06 00:37:00,74.8,75.0,29.89,NE,46,0.0,0.0,99,0.00,,,0.00,weatherlink.com 1.10,2013-08-06 05:37:00,
2013-08-06 00:52:00,74.6,74.0,29.89,SE,146,0.0,3.0,99,0.00,,,0.00,weatherlink.com 1.10,2013-08-06 05:52:00,
2013-08-06 01:07:00,74.4,74.0,29.89,South,179,0.0,0.0,99,0.00,,,0.00,weatherlink.com 1.10,2013-08-06 06:07:00,
2013-08-06 01:22:00,74.3,74.0,29.90,South,179,0.0,0.0,99,0.00,,,0.00,weatherlink.com 1.10,2013-08-06 06:22:00,
2013-08-06 01:37:00,74.2,74.0,29.90,South,179,0.0,0.0,99,0.00,,,0.00,weatherlink.com 1.10,2013-08-06 06:37:00,
2013-08-06 01:53:00,74.2,74.0,29.90,South,179,0.0,0.0,99,0.00,,,0.00,weatherlink.com 1.10,2013-08-06 06:53:00,
2013-08-06 02:08:00,74.1,74.0,29.89,South,179,0.0,0.0,99,0.00,,,0.00,weatherlink.com 1.10,2013-08-06 07:08:00,
2013-08-06 02:23:00,74.1,74.0,29.89,South,179,0.0,0.0,99,0.00,,,0.00,weatherlink.com 1.10,2013-08-06 07:23:00,
2013-08-06 02:38:00,74.3,74.0,29.89,WSW,252,0.0,1.0,99,0.00,,,0.00,weatherlink.com 1.10,2013-08-06 07:38:00,
2013-08-06 02:53:00,74.3,74.0,29.88,WSW,251,0.0,1.0,99,0.01,,,0.01,weatherlink.com 1.10,2013-08-06 07:53:00,
2013-08-06 03:08:00,74.3,74.0,29.86,WSW,258,0.0,1.0,99,0.01,,,0.01,weatherlink.com 1.10,2013-08-06 08:08:00,
2013-08-06 03:23:00,74.2,74.0,29.87,WSW,258,0.0,1.0,99,0.01,,,0.01,weatherlink.com 1.10,2013-08-06 08:23:00,
2013-08-06 03:38:00,74.2,74.0,29.87,WSW,257,0.0,0.0,99,0.01,,,0.01,weatherlink.com 1.10,2013-08-06 08:38:00,
2013-08-06 03:53:00,74.1,74.0,29.89,WSW,258,0.0,0.0,99,0.00,,,0.01,weatherlink.com 1.10,2013-08-06 08:53:00,
2013-08-06 04:08:00,74.2,74.0,29.89,WSW,257,0.0,1.0,99,0.00,,,0.01,weatherlink.com 1.10,2013-08-06 09:08:00,
2013-08-06 04:23:00,74.2,74.0,29.90,West,265,0.0,1.0,99,0.00,,,0.01,weatherlink.com 1.10,2013-08-06 09:23:00,
2013-08-06 04:38:00,74.0,74.0,29.90,West,265,0.0,0.0,99,0.00,,,0.01,weatherlink.com 1.10,2013-08-06 09:38:00,
2013-08-06 04:53:00,73.9,74.0,29.90,West,265,0.0,0.0,99,0.00,,,0.01,weatherlink.com 1.10,2013-08-06 09:53:00,
2013-08-06 05:08:00,73.9,74.0,29.91,West,265,0.0,0.0,99,0.00,,,0.01,weatherlink.com 1.10,2013-08-06 10:08:00,
2013-08-06 05:23:00,73.7,73.0,29.90,West,265,0.0,0.0,99,0.00,,,0.01,weatherlink.com 1.10,2013-08-06 10:23:00,
2013-08-06 05:38:00,73.7,73.0,29.90,West,266,0.0,0.0,99,0.00,,,0.01,weatherlink.com 1.10,2013-08-06 10:38:00,
2013-08-06 05:53:00,73.7,73.0,29.91,West,266,0.0,0.0,99,0.00,,,0.01,weatherlink.com 1.10,2013-08-06 10:53:00,
2013-08-06 06:08:00,73.6,73.0,29.91,West,265,0.0,0.0,99,0.00,,,0.01,weatherlink.com 1.10,2013-08-06 11:08:00,
2013-08-06 06:23:00,73.7,73.0,29.91,West,266,0.0,0.0,99,0.00,,,0.01,weatherlink.com 1.10,2013-08-06 11:23:00,
2013-08-06 06:38:00,73.8,74.0,29.91,West,265,0.0,0.0,99,0.00,,,0.01,weatherlink.com 1.10,2013-08-06 11:38:00,
2013-08-06 06:53:00,74.0,74.0,29.92,West,265,0.0,0.0,99,0.00,,,0.01,weatherlink.com 1.10,2013-08-06 11:53:00,
2013-08-06 07:08:00,74.1,74.0,29.92,West,266,0.0,0.0,99,0.00,,,0.01,weatherlink.com 1.10,2013-08-06 12:08:00,
2013-08-06 07:23:00,74.2,74.0,29.93,West,266,0.0,0.0,99,0.00,,,0.01,weatherlink.com 1.10,2013-08-06 12:23:00,
2013-08-06 07:38:00,74.4,74.0,29.93,West,265,0.0,0.0,99,0.00,,,0.01,weatherlink.com 1.10,2013-08-06 12:38:00,
2013-08-06 07:53:00,74.5,74.0,29.93,West,265,0.0,1.0,99,0.02,,,0.03,weatherlink.com 1.10,2013-08-06 12:53:00,
2013-08-06 08:08:00,74.9,75.0,29.92,West,265,0.0,0.0,99,0.02,,,0.03,weatherlink.com 1.10,2013-08-06 13:08:00,
2013-08-06 08:23:00,75.2,75.0,29.92,ENE,70,0.0,1.0,99,0.02,,,0.03,weatherlink.com 1.10,2013-08-06 13:23:00,
2013-08-06 08:38:00,75.7,75.0,29.92,ENE,65,0.0,1.0,99,0.02,,,0.03,weatherlink.com 1.10,2013-08-06 13:38:00,
2013-08-06 08:53:00,76.1,76.0,29.92,SE,144,0.0,1.0,99,0.00,,,0.03,weatherlink.com 1.10,2013-08-06 13:53:00,
2013-08-06 09:08:00,76.6,76.0,29.92,SE,139,0.0,1.0,99,0.00,,,0.03,weatherlink.com 1.10,2013-08-06 14:08:00,
2013-08-06 09:23:00,77.5,77.0,29.92,NNE,32,0.0,1.0,98,0.00,,,0.03,weatherlink.com 1.10,2013-08-06 14:23:00,
2013-08-06 09:38:00,77.7,77.0,29.92,NNE,33,1.0,1.0,97,0.00,,,0.03,weatherlink.com 1.10,2013-08-06 14:38:00,
2013-08-06 09:53:00,77.6,77.0,29.94,NNW,327,0.0,2.0,97,0.00,,,0.03,weatherlink.com 1.10,2013-08-06 14:53:00,
2013-08-06 10:08:00,78.2,77.0,29.95,ENE,62,0.0,4.0,95,0.00,,,0.03,weatherlink.com 1.10,2013-08-06 15:08:00,
2013-08-06 10:23:00,78.5,77.0,29.95,SE,142,1.0,4.0,95,0.00,,,0.03,weatherlink.com 1.10,2013-08-06 15:23:00,
2013-08-06 10:38:00,79.1,77.0,29.95,SE,129,0.0,6.0,94,0.00,,,0.03,weatherlink.com 1.10,2013-08-06 15:38:00,
2013-08-06 10:53:00,80.2,78.0,29.95,NW,311,1.0,2.0,92,0.00,,,0.03,weatherlink.com 1.10,2013-08-06 15:53:00,
2013-08-06 11:08:00,80.4,78.0,29.95,East,89,0.0,4.0,91,0.00,,,0.03,weatherlink.com 1.10,2013-08-06 16:08:00,
2013-08-06 11:23:00,81.4,79.0,29.95,WNW,303,1.0,2.0,91,0.00,,,0.03,weatherlink.com 1.10,2013-08-06 16:23:00,
2013-08-06 11:38:00,81.0,78.0,29.96,SE,129,0.0,1.0,89,0.00,,,0.03,weatherlink.com 1.10,2013-08-06 16:38:00,
2013-08-06 11:53:00,81.3,78.0,29.95,East,91,0.0,2.0,89,0.00,,,0.03,weatherlink.com 1.10,2013-08-06 16:53:00,
2013-08-06 12:08:00,81.0,77.0,29.94,ENE,64,0.0,4.0,88,0.00,,,0.03,weatherlink.com 1.10,2013-08-06 17:08:00,
2013-08-06 12:23:00,81.2,77.0,29.94,West,273,0.0,1.0,88,0.00,,,0.03,weatherlink.com 1.10,2013-08-06 17:23:00,
2013-08-06 12:38:00,81.8,78.0,29.94,NE,53,0.0,1.0,89,0.00,,,0.03,weatherlink.com 1.10,2013-08-06 17:38:00,
2013-08-06 12:54:00,82.4,78.0,29.93,ENE,77,0.0,2.0,85,0.00,,,0.03,weatherlink.com 1.10,2013-08-06 17:54:00,
2013-08-06 13:09:00,83.0,77.0,29.95,NNE,14,1.0,4.0,83,0.00,,,0.03,weatherlink.com 1.10,2013-08-06 18:09:00,
2013-08-06 13:24:00,81.6,77.0,29.97,East,88,0.0,5.0,87,0.00,,,0.03,weatherlink.com 1.10,2013-08-06 18:24:00,
2013-08-06 13:39:00,81.9,78.0,29.96,ENE,61,0.0,2.0,87,0.00,,,0.03,weatherlink.com 1.10,2013-08-06 18:39:00,
2013-08-06 13:54:00,82.1,78.0,29.95,NE,34,0.0,3.0,86,0.00,,,0.03,weatherlink.com 1.10,2013-08-06 18:54:00,
2013-08-06 14:09:00,83.5,77.0,29.94,North,352,1.0,5.0,81,0.00,,,0.03,weatherlink.com 1.10,2013-08-06 19:09:00,
2013-08-06 14:24:00,84.2,77.0,29.93,ENE,65,0.0,4.0,79,0.00,,,0.03,weatherlink.com 1.10,2013-08-06 19:24:00,
2013-08-06 14:39:00,85.0,77.0,29.93,ENE,72,1.0,3.0,77,0.00,,,0.03,weatherlink.com 1.10,2013-08-06 19:39:00,
2013-08-06 14:54:00,83.9,76.0,29.92,SE,124,0.0,3.0,77,0.00,,,0.03,weatherlink.com 1.10,2013-08-06 19:54:00,
2013-08-06 15:09:00,83.2,77.0,29.92,SE,140,0.0,3.0,82,0.00,,,0.03,weatherlink.com 1.10,2013-08-06 20:09:00,
2013-08-06 15:24:00,82.8,77.0,29.90,North,360,0.0,1.0,83,0.00,,,0.03,weatherlink.com 1.10,2013-08-06 20:24:00,
2013-08-06 15:39:00,82.3,77.0,29.90,West,272,0.0,1.0,84,0.00,,,0.03,weatherlink.com 1.10,2013-08-06 20:39:00,
2013-08-06 15:54:00,81.4,77.0,29.88,SE,142,0.0,1.0,86,0.00,,,0.03,weatherlink.com 1.10,2013-08-06 20:54:00,
2013-08-06 16:09:00,81.2,77.0,29.87,NE,44,0.0,1.0,87,0.00,,,0.03,weatherlink.com 1.10,2013-08-06 21:09:00,
2013-08-06 16:24:00,82.4,77.0,29.88,South,181,0.0,3.0,84,0.00,,,0.03,weatherlink.com 1.10,2013-08-06 21:24:00,
2013-08-06 16:39:00,83.0,78.0,29.88,NNE,25,1.0,3.0,84,0.00,,,0.03,weatherlink.com 1.10,2013-08-06 21:39:00,
2013-08-06 16:54:00,83.3,78.0,29.89,ENE,63,0.0,2.0,84,0.00,,,0.03,weatherlink.com 1.10,2013-08-06 21:54:00,
2013-08-06 17:09:00,83.3,78.0,29.89,ENE,77,0.0,3.0,85,0.00,,,0.03,weatherlink.com 1.10,2013-08-06 22:09:00,
2013-08-06 17:24:00,84.0,78.0,29.89,NNE,15,1.0,3.0,83,0.00,,,0.03,weatherlink.com 1.10,2013-08-06 22:24:00,
2013-08-06 17:39:00,83.8,79.0,29.89,SE,141,0.0,3.0,84,0.00,,,0.03,weatherlink.com 1.10,2013-08-06 22:39:00,
2013-08-06 17:54:00,83.6,78.0,29.88,NE,45,0.0,3.0,84,0.00,,,0.03,weatherlink.com 1.10,2013-08-06 22:54:00,
2013-08-06 18:09:00,83.4,79.0,29.88,NE,39,2.0,5.0,85,0.00,,,0.03,weatherlink.com 1.10,2013-08-06 23:09:00,
2013-08-06 18:24:00,83.3,79.0,29.88,NE,41,0.0,3.0,86,0.00,,,0.03,weatherlink.com 1.10,2013-08-06 23:24:00,
2013-08-06 18:39:00,82.9,78.0,29.88,North,9,0.0,1.0,86,0.00,,,0.03,weatherlink.com 1.10,2013-08-06 23:39:00,
2013-08-06 18:54:00,82.3,78.0,29.88,East,86,0.0,1.0,87,0.00,,,0.03,weatherlink.com 1.10,2013-08-06 23:54:00,
2013-08-06 19:09:00,82.0,78.0,29.89,ENE,65,0.0,1.0,88,0.00,,,0.03,weatherlink.com 1.10,2013-08-07 00:09:00,
2013-08-06 19:24:00,81.1,78.0,29.89,ENE,65,0.0,1.0,90,0.00,,,0.03,weatherlink.com 1.10,2013-08-07 00:24:00,
2013-08-06 19:39:00,80.5,78.0,29.88,ENE,65,0.0,0.0,91,0.00,,,0.03,weatherlink.com 1.10,2013-08-07 00:39:00,
2013-08-06 19:54:00,79.9,77.0,29.88,ENE,65,0.0,0.0,92,0.00,,,0.03,weatherlink.com 1.10,2013-08-07 00:54:00,
2013-08-06 20:09:00,79.4,77.0,29.88,ENE,65,0.0,0.0,93,0.00,,,0.03,weatherlink.com 1.10,2013-08-07 01:09:00,
2013-08-06 20:24:00,79.0,77.0,29.88,NNW,341,0.0,2.0,92,0.00,,,0.03,weatherlink.com 1.10,2013-08-07 01:24:00,
2013-08-06 20:39:00,79.1,77.0,29.88,East,82,0.0,2.0,92,0.00,,,0.03,weatherlink.com 1.10,2013-08-07 01:39:00,
2013-08-06 20:54:00,78.9,77.0,29.88,NNE,32,1.0,2.0,92,0.00,,,0.03,weatherlink.com 1.10,2013-08-07 01:54:00,
2013-08-06 21:09:00,78.8,76.0,29.89,ENE,65,0.0,2.0,91,0.00,,,0.03,weatherlink.com 1.10,2013-08-07 02:09:00,
2013-08-06 21:24:00,78.5,76.0,29.90,ENE,66,0.0,1.0,91,0.00,,,0.03,weatherlink.com 1.10,2013-08-07 02:24:00,
2013-08-06 21:39:00,78.1,75.0,29.89,NNE,33,0.0,2.0,91,0.00,,,0.03,weatherlink.com 1.10,2013-08-07 02:39:00,
2013-08-06 21:54:00,77.7,75.0,29.90,NE,53,0.0,3.0,91,0.00,,,0.03,weatherlink.com 1.10,2013-08-07 02:54:00,
2013-08-06 22:09:00,77.4,75.0,29.90,NE,53,0.0,0.0,91,0.00,,,0.03,weatherlink.com 1.10,2013-08-07 03:09:00,
2013-08-06 22:24:00,77.1,74.0,29.90,NE,44,0.0,1.0,91,0.00,,,0.03,weatherlink.com 1.10,2013-08-07 03:24:00,
2013-08-06 22:39:00,76.8,74.0,29.90,SE,129,0.0,1.0,91,0.00,,,0.03,weatherlink.com 1.10,2013-08-07 03:39:00,
2013-08-06 22:54:00,76.6,74.0,29.90,East,80,0.0,2.0,92,0.00,,,0.03,weatherlink.com 1.10,2013-08-07 03:54:00,
2013-08-06 23:09:00,76.4,74.0,29.90,East,88,0.0,1.0,92,0.00,,,0.03,weatherlink.com 1.10,2013-08-07 04:09:00,
2013-08-06 23:24:00,76.4,74.0,29.90,SE,133,0.0,2.0,92,0.00,,,0.03,weatherlink.com 1.10,2013-08-07 04:24:00,
2013-08-06 23:39:00,76.2,74.0,29.90,ESE,119,0.0,1.0,93,0.00,,,0.03,weatherlink.com 1.10,2013-08-07 04:39:00,
2013-08-06 23:54:00,76.2,74.0,29.90,East,96,0.0,1.0,93,0.00,,,0.03,weatherlink.com 1.10,2013-08-07 04:54:00,